Location: Saratoga Springs
(43.0831°N, 73.7850°W)
Time: 16:41:59
(UTC-04:00)

Tiros 1 - Pass Details

Date: 18 April 2024
Orbit: 624 x 657 km, 48.4° (Epoch: 28 May)

Event Time Altitude Azimuth Distance (km) Brightness Sun altitude
Rises 08:41:13 0° 286° (WNW) 2,902 9.9 27.0°
Reaches altitude 10° 08:44:10 10° 267° (W) 1,992 9.2 27.5°
Maximum altitude 08:47:12 18° 226° (SW) 1,548 8.9 28.1°
Drops below altitude 10° 08:50:14 10° 184° (S) 1,989 9.9 28.6°
Sets 08:53:11 0° 164° (SSE) 2,896 10.9 29.1°
